DL8NDG-13 Weather Reports


Display with metric or nautical units.
time (UTC)temp
F
wind
direction
speed
MPH
gust
MPH
rain 1hr
in
rain 24hr
in
rain mn
in
humidity
%
barometer
mb
20260505021531 59 269 0.0 0.0 0.00 0.00 0.00 76 1008.3
20260505020034 59 292 0.0 0.0 0.00 0.00 0.00 76 1008.4
20260505014529 59 293 0.0 0.0 0.00 0.00 0.00 75 1008.3
20260505013027 60 273 0.0 0.0 0.00 0.00 0.00 75 1008.3
20260505011530 60 272 0.0 0.0 0.00 0.00 0.00 74 1008.4
20260505010023 60 266 0.0 0.0 0.00 0.00 0.00 73 1008.8
20260505004532 60 259 0.0 0.0 0.00 0.00 0.00 73 1008.9
20260505003017 61 257 0.0 0.0 0.00 0.00 0.00 72 1009.2
20260505001515 61 259 0.0 0.0 0.00 0.00 0.00 71 1009.4
20260505000023 61 259 0.0 0.0 0.00 0.00 0.00 70 1009.4
20260504234513 61 295 0.0 0.0 0.00 0.00 0.00 70 1009.4
20260504233011 62 280 0.0 0.0 0.00 0.00 0.00 69 1009.5
20260504231509 62 279 0.0 0.0 0.00 0.00 0.00 69 1009.6
20260504230015 62 259 0.0 0.0 0.00 0.00 0.00 69 1009.7
20260504224505 62 260 0.0 0.0 0.00 0.00 0.00 68 1009.8
20260504223004 62 259 0.0 0.0 0.00 0.00 0.00 67 1009.8
20260504221505 62 293 0.0 0.0 0.00 0.00 0.00 67 1009.9
20260504220002 62 251 0.0 0.0 0.00 0.00 0.00 66 1009.9
20260504214604 63 251 0.0 0.0 0.00 0.00 0.00 65 1010.0
20260504213137 63 248 0.0 0.0 0.00 0.00 0.00 64 1010.1
20260504211605 63 272 0.0 0.0 0.00 0.00 0.00 63 1010.1
20260504210057 64 249 0.0 0.0 0.00 0.00 0.00 62 1010.2
20260504204558 64 253 0.0 0.0 0.00 0.00 0.00 62 1010.2
20260504203117 64 298 0.0 0.0 0.00 0.00 0.00 61 1010.2
20260504201555 65 260 0.0 0.0 0.00 0.00 0.00 60 1010.0
20260504200053 65 284 0.0 0.0 0.00 0.00 0.00 59 1010.0
20260504194602 65 263 0.0 0.0 0.00 0.00 0.00 58 1009.9
20260504193059 65 263 0.0 0.0 0.00 0.00 0.00 58 1009.9
20260504191551 66 262 0.0 0.0 0.00 0.00 0.00 58 1009.9
20260504190109 66 298 0.0 0.0 0.00 0.00 0.00 57 1009.8
20260504184559 67 284 0.0 0.0 0.00 0.00 0.00 56 1009.8
20260504183049 67 262 0.0 0.0 0.00 0.00 0.00 55 1009.8
20260504181549 68 258 0.0 0.0 0.00 0.00 0.00 54 1009.8
20260504180048 68 254 0.0 0.0 0.00 0.00 0.00 53 1009.9
20260504174546 69 254 0.0 0.0 0.00 0.00 0.00 52 1009.9
20260504173050 69 273 0.0 0.0 0.00 0.00 0.00 51 1009.9
20260504171543 70 281 0.0 0.0 0.00 0.00 0.00 50 1009.9
20260504100104 71 191 0.0 0.0 0.00 0.00 0.00 46 1012.7
20260504081534 64 147 0.0 0.0 0.00 0.00 0.00 56 1013.3
20260504080133 63 91 0.0 0.0 0.00 0.00 0.00 57 1013.4
20260504050010 50 157 0.0 0.0 0.00 0.00 0.00 79 1013.3
20260504044517 50 165 0.0 2.0 0.00 0.00 0.00 78 1013.2
20260504043005 50 237 0.0 0.0 0.00 0.00 0.00 78 1013.0
20260504041501 50 236 0.0 0.0 0.00 0.00 0.00 77 1012.8
20260504040107 51 217 0.0 0.0 0.00 0.00 0.00 78 1012.9
20260504034604 51 219 0.0 0.0 0.00 0.00 0.00 77 1013.0
20260504033108 52 219 0.0 0.0 0.00 0.00 0.00 75 1013.0
20260504031554 52 239 0.0 0.0 0.00 0.00 0.00 75 1013.1
20260504030053 52 221 0.0 0.0 0.00 0.00 0.00 75 1013.2
20260504024552 52 219 0.0 0.0 0.00 0.00 0.00 75 1013.2
20260504023051 52 217 0.0 0.0 0.00 0.00 0.00 75 1013.0